Regional Weather Roundup
Issued by NWS

Home | Current Version | Previous Version | Text Only | Print | Product List | Glossary Off
Versions: 1 2 3 4 5 6 7 8 9 10 11 12 13 14 15 16 17 18 19 20 21 22 23 24 25 26 27 28 29 30 31 32 33 34 35 36 37 38 39 40 41 42 43 44 45 46 47 48 49 50

000
ASUS43 KOAX 221410
RWRNE

WEATHER ROUNDUP FOR NEBRASKA
NATIONAL WEATHER SERVICE OMAHA NE
900 AM CDT THU JUN 22 2017

NOTES: SATELLITE DATA IS BEING USED TO AUGMENT CLOUD COVER ABOVE
       12000 FEET.
       "FAIR" INDICATES FEW OR NO CLOUDS BELOW 12,000 FEET WITH NO
       SIGNIFICANT WEATHER AND/OR OBSTRUCTIONS TO VISIBILITY.

  * THESE STATIONS DO NOT REPORT WEATHER SUCH AS RAIN...SNOW OR FOG.

NEZ001>004-019>022-054>056-221500-
NEBRASKA PANHANDLE

CITY           SKY/WX    TMP DP  RH WIND       PRES   REMARKS
SCOTTSBLUFF    SUNNY     68  51  54 NW9       29.87R
ALLIANCE       SUNNY     64  52  64 N14       29.84R
CHADRON        SUNNY     66  49  54 N12       29.87R
GORDON         FAIR      64  48  56 NE16G28   29.83R
KIMBALL        SUNNY     72  51  47 NW21G30   29.91R
SIDNEY         SUNNY     76  50  40 NW18G28   29.85R
$$

NEZ057>060-069>072-079>082-221500-
SOUTHWEST NEBRASKA

CITY           SKY/WX    TMP DP  RH WIND       PRES   REMARKS
NORTH PLATTE   SUNNY     79  55  43 W8        29.65F
IMPERIAL       SUNNY     79  48  33 W9        29.72R
LEXINGTON      SUNNY     76  61  59 SW12      29.64F
MCCOOK         SUNNY     82  58  43 W12       29.66F
OGALLALA       SUNNY     87  44  21 NW21G28   29.72R
$$

NEZ005>010-023>029-035>040-094-221500-
NORTH CENTRAL NEBRASKA

CITY           SKY/WX    TMP DP  RH WIND       PRES   REMARKS
VALENTINE      PTSUNNY   70  51  51 NE22G36   29.78R
AINSWORTH      SUNNY     70  61  72 E17G25    29.72R
BROKEN BOW     SUNNY     77  61  57 SW8       29.64S
O`NEILL        CLOUDY    71  69  95 E12       29.68F
ORD            SUNNY     76  58  53 CALM      29.64R
THEDFORD       SUNNY     76  60  57 NW10      29.69R
$$

NEZ041-046>049-061>064-073>077-083>087-221500-
SOUTH CENTRAL NEBRASKA

CITY           SKY/WX    TMP DP  RH WIND       PRES   REMARKS
GRAND ISLAND   SUNNY     78  61  55 S17G28    29.64F
AURORA         SUNNY     78  60  54 SW17G23   29.65F
HASTINGS       SUNNY     76  60  57 S12       29.67F
HEBRON         SUNNY     77  62  59 SW15G24   29.68R
HOLDREGE       SUNNY     76  59  55 S20G26    29.64F
KEARNEY *      SUNNY     79  59  50 S15G22    29.64F
YORK           CLOUDY    81  63  54 SW14G20   29.65S
$$

NEZ011>018-030>034-042>045-221500-
NORTHEAST NEBRASKA

CITY           SKY/WX    TMP DP  RH WIND       PRES   REMARKS
NORFOLK        SUNNY     77  59  53 SE5       29.66S
ALBION         MOSUNNY   79  60  51 SW5       29.67R
BLAIR          CLOUDY    78  62  57 S16       29.66F
FREMONT        MOSUNNY   79  62  56 SE9       29.66S
TEKAMAH        SUNNY     81  61  50 S8        29.65F
WAYNE          SUNNY     80  63  56 S7        29.66F
$$

NEZ050>053-065>068-078-088>093-221500-
SOUTHEAST NEBRASKA

CITY           SKY/WX    TMP DP  RH WIND       PRES   REMARKS
LINCOLN        MOSUNNY   78  63  59 S13       29.66F
OMAHA EPPLEY   CLOUDY    78  60  53 S15       29.67S
BEATRICE       PTSUNNY   77  64  63 S14       29.69S
FALLS CITY     CLOUDY    75  64  68 S12       29.72S
NEBRASKA CITY  CLOUDY    74  64  70 S10       29.69F
PLATTSMOUTH    CLOUDY    74  60  60 S13       29.67F
$$

NEZ044-045-051>053-067-221500-
OMAHA AREA

CITY           SKY/WX    TMP DP  RH WIND       PRES   REMARKS
OMAHA EPPLEY   CLOUDY    78  60  53 S15       29.67S
BLAIR          CLOUDY    78  62  57 S16       29.66F
FREMONT        MOSUNNY   79  62  56 SE9       29.66S
MILLARD        CLOUDY    79  63  58 SE12      29.67S
OFFUTT AFB     CLOUDY    75  61  60 SE8       29.67F
PLATTSMOUTH    CLOUDY    74  60  60 S13       29.67F
WAHOO          FAIR      79  61  55 S8        29.66R
$$



USA.gov is the U.S. government's official web portal to all federal, state and local government web resources and services.